"Period start","avg(HW err(1)/warn(2) (#))","avg(Visibility (m))","avg(Weather code (#))","avg(Precip intensity (mm/h))","min(HW err(1)/warn(2) (#))","max(HW err(1)/warn(2) (#))","std(HW err(1)/warn(2) (#))","med(HW err(1)/warn(2) (#))","min(Visibility (m))","max(Visibility (m))","std(Visibility (m))","med(Visibility (m))","min(Weather code (#))","max(Weather code (#))","std(Weather code (#))","med(Weather code (#))","min(Precip intensity (mm/h))","max(Precip intensity (mm/h))","std(Precip intensity (mm/h))","med(Precip intensity (mm/h))"
2017-06-17 00:00:00,0,48290,0,0.00,0,0,0,0,45360,50000,1989,49676,0,0,0,0,0.00,0.00,0.00,0.00
2017-06-17 00:10:00,2,49622,0,0.00,2,2,0,2,48936,50000,467,50000,0,0,0,0,0.00,0.00,0.00,0.00
2017-06-17 00:20:00,1,49087,0,0.00,0,2,1,0,45694,50000,1416,50000,0,0,0,0,0.00,0.00,0.00,0.00
2017-06-17 00:30:00,1,49461,0,0.00,0,2,1,1,46800,50000,1014,50000,0,0,0,0,0.00,0.00,0.00,0.00
2017-06-17 00:40:00,2,41663,0,0.00,2,2,0,2,24935,50000,8264,44015,0,0,0,0,0.00,0.00,0.00,0.00
2017-06-17 00:50:00,2,40549,0,0.00,2,2,0,2,28737,50000,7270,41733,0,0,0,0,0.00,0.00,0.00,0.00
2017-06-17 01:00:00,2,42419,0,0.00,2,2,0,2,26559,50000,6782,42280,0,0,0,0,0.00,0.00,0.00,0.00
2017-06-17 01:10:00,2,43253,0,0.00,2,2,0,2,28585,50000,7253,46722,0,0,0,0,0.00,0.00,0.00,0.00
2017-06-17 01:20:00,2,44502,0,0.00,2,2,0,2,31574,50000,6507,47584,0,0,0,0,0.00,0.00,0.00,0.00
2017-06-17 01:30:00,2,45840,0,0.00,2,2,0,2,36908,50000,4570,47800,0,0,0,0,0.00,0.00,0.00,0.00
2017-06-17 01:40:00,2,44348,0,0.00,2,2,0,2,34562,50000,4819,44872,0,0,0,0,0.00,0.00,0.00,0.00
2017-06-17 01:50:00,2,48031,0,0.00,2,2,0,2,43558,50000,2409,49448,0,0,0,0,0.00,0.00,0.00,0.00
2017-06-17 02:00:00,2,49680,0,0.00,0,2,1,2,46798,50000,961,50000,0,0,0,0,0.00,0.00,0.00,0.00
2017-06-17 02:10:00,0,49432,0,0.00,0,2,1,0,47505,50000,942,50000,0,0,0,0,0.00,0.00,0.00,0.00
2017-06-17 02:20:00,1,31175,49,1.30,0,2,1,1,22571,41919,6655,31774,0,61,19,61,0.00,3.05,0.89,1.15
2017-06-17 02:30:00,2,33488,58,0.38,2,2,0,2,23879,47262,7934,31760,51,61,5,61,0.10,0.85,0.26,0.30
2017-06-17 02:40:00,2,22805,61,1.21,2,2,0,2,15415,30970,5551,21829,61,61,0,61,0.45,2.15,0.59,1.08
2017-06-17 02:50:00,2,26234,61,1.22,2,2,0,2,21973,30920,2905,25516,61,61,0,61,0.40,2.55,0.61,1.10
2017-06-17 03:00:00,2,21495,61,2.19,2,2,0,2,8592,42154,11144,20837,61,61,0,61,0.15,7.30,2.59,0.62
2017-06-17 03:10:00,2,19047,49,0.97,2,2,0,2,9694,30799,7803,17328,0,61,24,61,0.00,3.65,1.26,0.33
2017-06-17 03:20:00,2,27697,26,0.97,2,2,0,2,15321,40648,9825,29136,0,61,27,20,0.00,2.95,1.06,0.62
2017-06-17 03:30:00,2,19873,61,2.04,2,2,0,2,17531,26878,2563,18839,61,61,0,61,0.90,4.80,1.31,1.55
2017-06-17 03:40:00,2,20432,56,1.52,2,2,0,2,11116,27504,5459,21684,52,61,4,56,0.45,6.05,1.62,0.88
2017-06-17 03:50:00,2,17048,59,1.23,2,2,0,2,10517,24336,5161,16930,52,61,4,61,0.35,2.70,0.70,1.02
2017-06-17 04:00:00,2,21424,53,1.27,2,2,0,2,9829,31922,6588,23336,51,61,4,52,0.15,3.90,1.19,0.60
2017-06-17 04:10:00,2,16013,54,0.74,2,2,0,2,10689,20589,2678,16356,51,61,4,52,0.15,1.75,0.48,0.62
2017-06-17 04:20:00,2,24786,51,0.10,2,2,0,2,17354,34281,5688,25412,51,51,0,51,0.00,0.20,0.06,0.08
2017-06-17 04:30:00,2,36086,0,0.00,2,2,0,2,32394,39376,2240,36654,0,0,0,0,0.00,0.00,0.00,0.00
2017-06-17 04:40:00,2,28036,20,1.28,2,2,0,2,8679,41972,13210,31800,0,61,26,0,0.00,6.10,1.93,0.00
2017-06-17 04:50:00,2,9277,57,3.29,2,2,0,2,7444,11595,1400,8902,52,61,4,61,2.00,5.85,1.10,3.25
2017-06-17 05:00:00,2,6950,57,3.81,2,2,0,2,4916,10004,1731,6667,52,61,4,61,1.40,6.45,1.74,3.70
2017-06-17 05:10:00,2,7429,61,2.67,2,2,0,2,6363,8766,655,7535,61,61,0,61,1.35,4.25,0.82,2.53
2017-06-17 05:20:00,2,8775,61,1.73,2,2,0,2,7199,9972,757,8773,61,61,0,61,1.05,2.75,0.63,1.55
2017-06-17 05:30:00,2,10610,53,1.39,2,2,0,2,7792,14271,1849,10282,52,61,3,52,0.55,2.55,0.68,1.12
2017-06-17 05:40:00,2,8056,56,2.45,2,2,0,2,6418,10283,1046,7970,52,61,4,56,1.65,3.50,0.58,2.33
2017-06-17 05:50:00,2,6206,57,4.78,2,2,0,2,4629,8177,1272,6027,52,61,4,61,2.25,7.45,1.91,5.17
2017-06-17 06:00:00,2,7324,57,3.52,2,2,0,2,4747,9441,1561,7674,52,61,4,61,1.05,8.10,2.32,2.42
2017-06-17 06:10:00,2,6282,61,2.75,2,2,0,2,3801,10274,2170,5535,61,61,0,61,1.55,6.15,1.38,2.30
2017-06-17 06:20:00,2,7950,61,4.04,2,2,0,2,4113,13203,3375,7418,61,62,0,61,0.80,11.40,3.19,3.20
2017-06-17 06:30:00,2,5683,61,4.56,2,2,0,2,4780,7195,735,5546,61,61,0,61,1.50,8.60,2.04,4.08
2017-06-17 06:40:00,2,4964,61,6.33,2,2,0,2,3673,5975,643,4954,61,61,0,61,3.05,9.00,1.53,6.05
2017-06-17 06:50:00,2,6938,61,4.12,2,2,0,2,5231,8691,1063,6864,61,61,0,61,1.65,7.55,2.00,4.12
2017-06-17 07:00:00,2,3637,61,4.34,2,2,0,2,2937,5322,683,3458,61,61,0,61,1.80,12.05,2.87,3.40
2017-06-17 07:10:00,2,5028,61,6.14,2,2,0,2,3070,6354,982,5110,61,61,0,61,3.90,9.20,1.85,5.72
2017-06-17 07:20:00,2,8175,61,3.20,2,2,0,2,6380,9588,1034,8185,61,61,0,61,1.40,6.35,1.34,2.95
2017-06-17 07:30:00,2,5158,62,11.40,2,2,0,2,4060,7334,1097,4770,61,62,0,62,3.90,16.75,4.30,12.03
2017-06-17 07:40:00,2,8396,61,6.33,2,2,0,2,4728,14777,3345,7864,61,62,0,61,1.55,15.95,4.98,4.40
2017-06-17 07:50:00,2,5070,64,8.46,2,2,0,2,3702,7254,1111,4767,61,67,3,62,2.80,27.75,7.46,4.38
2017-06-17 08:00:00,2,7408,67,2.56,2,2,0,2,6392,8908,803,7172,67,67,0,67,0.15,5.45,1.55,2.35
2017-06-17 08:10:00,2,6350,71,0.74,2,2,0,2,4125,8299,1517,6764,71,71,0,71,0.10,1.75,0.43,0.70
2017-06-17 08:20:00,2,3147,71,1.76,2,2,0,2,2081,4249,594,3138,71,71,0,71,0.65,2.50,0.50,1.78
2017-06-17 08:30:00,2,3198,71,1.52,2,2,0,2,2535,4646,640,2876,71,71,0,71,1.10,2.15,0.29,1.43
2017-06-17 08:40:00,2,2572,71,2.54,2,2,0,2,1695,3843,737,2436,71,71,0,71,0.45,4.50,1.21,2.60
2017-06-17 08:50:00,2,2996,71,2.06,2,2,0,2,2233,3886,452,3005,71,71,0,71,0.95,4.65,1.10,1.67
2017-06-17 09:00:00,2,2384,71,2.67,2,2,0,2,1675,3926,693,2178,71,71,0,71,1.90,4.35,0.71,2.40
2017-06-17 09:10:00,2,2366,71,4.20,2,2,0,2,1881,2669,242,2462,71,71,0,71,2.10,6.25,1.28,3.83
2017-06-17 09:20:00,2,3517,72,2.17,2,2,0,2,2556,4934,726,3410,71,74,1,71,0.75,3.65,0.97,2.08
2017-06-17 09:30:00,2,2865,71,2.33,2,2,0,2,2408,3398,361,2818,71,71,0,71,1.45,4.15,0.78,2.27
2017-06-17 09:40:00,2,2653,71,2.71,2,2,0,2,2162,3039,254,2655,71,71,0,71,1.30,5.30,1.24,2.45
2017-06-17 09:50:00,2,2729,71,2.78,2,2,0,2,2105,3960,562,2623,71,71,0,71,1.25,6.90,1.55,2.42
2017-06-17 10:00:00,2,3305,71,1.84,2,2,0,2,2365,4401,577,3320,71,71,0,71,0.75,3.25,0.69,1.77
2017-06-17 10:10:00,2,5613,71,0.87,2,2,0,2,3669,7905,1182,5718,71,71,0,71,0.50,1.30,0.26,0.95
2017-06-17 10:20:00,2,9776,72,0.37,2,2,0,2,5181,13628,2612,10144,71,74,1,71,0.10,1.20,0.32,0.25
2017-06-17 10:30:00,2,9890,71,0.42,2,2,0,2,8025,12899,1366,9751,67,74,2,71,0.25,0.60,0.11,0.42
2017-06-17 10:40:00,2,7903,71,0.24,2,2,0,2,6824,10080,827,7821,71,71,0,71,0.10,0.50,0.11,0.25
2017-06-17 10:50:00,2,7748,71,0.51,2,2,0,2,5013,13876,2531,7136,71,71,0,71,0.05,1.00,0.32,0.45
2017-06-17 11:00:00,2,16346,71,0.07,2,2,0,2,11636,22474,3922,15475,71,71,0,71,0.00,0.20,0.06,0.05
2017-06-17 11:10:00,2,26276,71,0.01,2,2,0,2,11556,42557,8958,24546,71,71,0,71,0.00,0.05,0.02,0.00
2017-06-17 11:20:00,2,48083,66,0.00,2,2,0,2,43596,50000,2356,49268,0,77,22,71,0.00,0.00,0.00,0.00
2017-06-17 11:30:00,2,50000,0,0.00,2,2,0,2,50000,50000,0,50000,0,0,0,0,0.00,0.00,0.00,0.00
2017-06-17 11:40:00,2,49035,0,0.00,2,2,0,2,42813,50000,2200,50000,0,0,0,0,0.00,0.00,0.00,0.00
2017-06-17 11:50:00,2,49914,0,0.00,2,2,0,2,49135,50000,260,50000,0,0,0,0,0.00,0.00,0.00,0.00
2017-06-17 12:00:00,0,49242,0,0.00,0,0,0,0,44376,50000,1684,50000,0,0,0,0,0.00,0.00,0.00,0.00
2017-06-17 12:10:00,0,49485,0,0.00,0,0,0,0,45736,50000,1277,50000,0,0,0,0,0.00,0.00,0.00,0.00
2017-06-17 12:20:00,0,49374,0,0.00,0,0,0,0,46483,50000,1086,50000,0,0,0,0,0.00,0.00,0.00,0.00
2017-06-17 12:30:00,0,50000,0,0.00,0,0,0,0,50000,50000,0,50000,0,0,0,0,0.00,0.00,0.00,0.00
2017-06-17 12:40:00,2,48266,0,0.00,0,2,1,2,40715,50000,3371,50000,0,0,0,0,0.00,0.00,0.00,0.00
2017-06-17 12:50:00,2,49726,0,0.00,2,2,0,2,47552,50000,730,50000,0,0,0,0,0.00,0.00,0.00,0.00
2017-06-17 13:00:00,2,49420,0,0.00,2,2,0,2,46125,50000,1239,50000,0,0,0,0,0.00,0.00,0.00,0.00
2017-06-17 13:10:00,2,50000,0,0.00,2,2,0,2,50000,50000,0,50000,0,0,0,0,0.00,0.00,0.00,0.00
2017-06-17 13:20:00,2,49918,0,0.00,2,2,0,2,49185,50000,244,50000,0,0,0,0,0.00,0.00,0.00,0.00
2017-06-17 13:30:00,2,49992,0,0.00,2,2,0,2,49915,50000,26,50000,0,0,0,0,0.00,0.00,0.00,0.00
2017-06-17 13:40:00,2,48924,0,0.00,2,2,0,2,42898,50000,2188,50000,0,0,0,0,0.00,0.00,0.00,0.00
2017-06-17 13:50:00,2,49736,0,0.00,2,2,0,2,47720,50000,674,50000,0,0,0,0,0.00,0.00,0.00,0.00
2017-06-17 14:00:00,2,48519,0,0.00,2,2,0,2,43238,50000,2366,50000,0,0,0,0,0.00,0.00,0.00,0.00
2017-06-17 14:10:00,2,50000,0,0.00,2,2,0,2,50000,50000,0,50000,0,0,0,0,0.00,0.00,0.00,0.00
2017-06-17 14:20:00,2,49666,0,0.00,2,2,0,2,46658,50000,1003,50000,0,0,0,0,0.00,0.00,0.00,0.00
2017-06-17 14:30:00,2,49703,0,0.00,2,2,0,2,48218,50000,609,50000,0,0,0,0,0.00,0.00,0.00,0.00
2017-06-17 14:40:00,2,49359,0,0.00,2,2,0,2,45786,50000,1242,49923,0,0,0,0,0.00,0.00,0.00,0.00
2017-06-17 14:50:00,2,49715,0,0.00,2,2,0,2,47150,50000,855,50000,0,0,0,0,0.00,0.00,0.00,0.00
2017-06-17 15:00:00,2,50000,0,0.00,2,2,0,2,50000,50000,0,50000,0,0,0,0,0.00,0.00,0.00,0.00
2017-06-17 15:10:00,2,48064,0,0.00,2,2,0,2,42425,50000,2389,49174,0,0,0,0,0.00,0.00,0.00,0.00
2017-06-17 15:20:00,2,49963,0,0.00,2,2,0,2,49632,50000,110,50000,0,0,0,0,0.00,0.00,0.00,0.00
2017-06-17 15:30:00,2,49965,0,0.00,2,2,0,2,49647,50000,106,50000,0,0,0,0,0.00,0.00,0.00,0.00
2017-06-17 15:40:00,2,49908,0,0.00,2,2,0,2,49079,50000,276,50000,0,0,0,0,0.00,0.00,0.00,0.00
2017-06-17 15:50:00,2,50000,0,0.00,2,2,0,2,50000,50000,0,50000,0,0,0,0,0.00,0.00,0.00,0.00
2017-06-17 16:00:00,2,49766,0,0.00,2,2,0,2,48643,50000,475,50000,0,0,0,0,0.00,0.00,0.00,0.00
2017-06-17 16:10:00,2,49792,0,0.00,2,2,0,2,47922,50000,623,50000,0,0,0,0,0.00,0.00,0.00,0.00
2017-06-17 16:20:00,2,50000,0,0.00,2,2,0,2,50000,50000,0,50000,0,0,0,0,0.00,0.00,0.00,0.00
2017-06-17 16:30:00,2,49529,0,0.00,2,2,0,2,45291,50000,1413,50000,0,0,0,0,0.00,0.00,0.00,0.00
2017-06-17 16:40:00,2,49750,0,0.00,2,2,0,2,47947,50000,616,50000,0,0,0,0,0.00,0.00,0.00,0.00
2017-06-17 16:50:00,2,49913,0,0.00,2,2,0,2,49162,50000,250,50000,0,0,0,0,0.00,0.00,0.00,0.00
2017-06-17 17:00:00,2,49175,0,0.00,2,2,0,2,46558,50000,1292,50000,0,0,0,0,0.00,0.00,0.00,0.00
2017-06-17 17:10:00,2,49870,0,0.00,2,2,0,2,49271,50000,262,50000,0,0,0,0,0.00,0.00,0.00,0.00
2017-06-17 17:20:00,2,49790,0,0.00,2,2,0,2,48379,50000,483,50000,0,0,0,0,0.00,0.00,0.00,0.00
2017-06-17 17:30:00,2,47697,0,0.00,2,2,0,2,41739,50000,2784,49115,0,0,0,0,0.00,0.00,0.00,0.00
2017-06-17 17:40:00,2,49816,0,0.00,2,2,0,2,48165,50000,550,50000,0,0,0,0,0.00,0.00,0.00,0.00
2017-06-17 17:50:00,2,49797,0,0.00,2,2,0,2,47966,50000,610,50000,0,0,0,0,0.00,0.00,0.00,0.00
2017-06-17 18:00:00,2,50000,0,0.00,2,2,0,2,50000,50000,0,50000,0,0,0,0,0.00,0.00,0.00,0.00
2017-06-17 18:10:00,2,49217,0,0.00,2,2,0,2,46129,50000,1150,49752,0,0,0,0,0.00,0.00,0.00,0.00
2017-06-17 18:20:00,2,49720,0,0.00,2,2,0,2,47200,50000,840,50000,0,0,0,0,0.00,0.00,0.00,0.00
2017-06-17 18:30:00,2,49940,0,0.00,2,2,0,2,49397,50000,181,50000,0,0,0,0,0.00,0.00,0.00,0.00
2017-06-17 18:40:00,2,49986,0,0.00,2,2,0,2,49855,50000,44,50000,0,0,0,0,0.00,0.00,0.00,0.00
2017-06-17 18:50:00,2,49184,0,0.00,2,2,0,2,45398,50000,1371,49984,0,0,0,0,0.00,0.00,0.00,0.00
2017-06-17 19:00:00,2,48196,0,0.00,2,2,0,2,45695,50000,1823,48692,0,0,0,0,0.00,0.00,0.00,0.00
2017-06-17 19:10:00,2,47313,0,0.00,2,2,0,2,41237,50000,2936,47990,0,0,0,0,0.00,0.00,0.00,0.00
2017-06-17 19:20:00,2,49490,0,0.00,2,2,0,2,47270,50000,928,50000,0,0,0,0,0.00,0.00,0.00,0.00
2017-06-17 19:30:00,2,47842,0,0.00,2,2,0,2,41177,50000,3042,49768,0,0,0,0,0.00,0.00,0.00,0.00
2017-06-17 19:40:00,2,49536,0,0.00,2,2,0,2,47472,50000,839,50000,0,0,0,0,0.00,0.00,0.00,0.00
2017-06-17 19:50:00,2,48529,0,0.00,2,2,0,2,45318,50000,1755,49153,0,0,0,0,0.00,0.00,0.00,0.00
2017-06-17 20:00:00,2,47484,0,0.00,2,2,0,2,42490,50000,3136,49918,0,0,0,0,0.00,0.00,0.00,0.00
2017-06-17 20:10:00,2,49796,0,0.00,2,2,0,2,48302,50000,508,50000,0,0,0,0,0.00,0.00,0.00,0.00
2017-06-17 20:20:00,2,49466,0,0.00,2,2,0,2,44825,50000,1548,50000,0,0,0,0,0.00,0.00,0.00,0.00
2017-06-17 20:30:00,2,49639,0,0.00,2,2,0,2,47165,50000,856,50000,0,0,0,0,0.00,0.00,0.00,0.00
2017-06-17 20:40:00,2,49086,0,0.00,2,2,0,2,45434,50000,1354,49692,0,0,0,0,0.00,0.00,0.00,0.00
2017-06-17 20:50:00,2,49546,0,0.00,2,2,0,2,46927,50000,920,50000,0,0,0,0,0.00,0.00,0.00,0.00
2017-06-17 21:00:00,2,46726,0,0.00,2,2,0,2,43304,50000,2413,47318,0,0,0,0,0.00,0.00,0.00,0.00
2017-06-17 21:10:00,2,47802,0,0.00,2,2,0,2,40966,50000,3215,49097,0,0,0,0,0.00,0.00,0.00,0.00
2017-06-17 21:20:00,2,44675,0,0.00,2,2,0,2,33867,50000,5149,45508,0,0,0,0,0.00,0.00,0.00,0.00
2017-06-17 21:30:00,2,48015,0,0.00,2,2,0,2,41434,50000,2823,49230,0,0,0,0,0.00,0.00,0.00,0.00
2017-06-17 21:40:00,2,49679,0,0.00,2,2,0,2,48194,50000,577,50000,0,0,0,0,0.00,0.00,0.00,0.00
2017-06-17 21:50:00,2,42282,0,0.00,2,2,0,2,33094,48257,5019,42553,0,0,0,0,0.00,0.00,0.00,0.00
2017-06-17 22:00:00,2,43041,0,0.00,2,2,0,2,36342,50000,4884,42434,0,0,0,0,0.00,0.00,0.00,0.00
2017-06-17 22:10:00,2,42191,0,0.00,2,2,0,2,29993,50000,6275,42956,0,0,0,0,0.00,0.00,0.00,0.00
2017-06-17 22:20:00,2,49057,0,0.00,2,2,0,2,45029,50000,1758,50000,0,0,0,0,0.00,0.00,0.00,0.00
2017-06-17 22:30:00,2,45141,0,0.00,2,2,0,2,39686,50000,4322,45636,0,0,0,0,0.00,0.00,0.00,0.00
2017-06-17 22:40:00,2,42710,0,0.00,2,2,0,2,30052,50000,5651,44328,0,0,0,0,0.00,0.00,0.00,0.00
2017-06-17 22:50:00,2,36279,0,0.00,2,2,0,2,25185,47801,6697,35438,0,0,0,0,0.00,0.00,0.00,0.00
2017-06-17 23:00:00,2,43669,0,0.00,2,2,0,2,26207,50000,7144,44299,0,0,0,0,0.00,0.00,0.00,0.00
2017-06-17 23:10:00,2,40529,0,0.00,2,2,0,2,34257,49480,5706,38921,0,0,0,0,0.00,0.00,0.00,0.00
2017-06-17 23:20:00,2,44144,0,0.00,2,2,0,2,34367,50000,6142,46546,0,0,0,0,0.00,0.00,0.00,0.00
2017-06-17 23:30:00,2,31630,0,0.00,2,2,0,2,17481,46878,9817,32058,0,0,0,0,0.00,0.00,0.00,0.00
2017-06-17 23:40:00,2,39993,0,0.00,2,2,0,2,20995,50000,7879,42270,0,0,0,0,0.00,0.00,0.00,0.00
2017-06-17 23:50:00,2,42210,0,0.00,2,2,0,2,32428,48049,4974,42528,0,0,0,0,0.00,0.00,0.00,0.00
